Nimba Airport

Jump to: basic info | weather | comments

Related pages: nearby airports | nearby navaids | notams | map

Basic information (top)

Codes: NIA GLNA
Location: lon 7.500000, lat -8.600000, elev 1,632 ft / 497 m msl
Status: small_airport
Scheduled airline service: no
Links: Wikipedia Mobile

Weather (top)

Current conditions for Man Airport 62nm (115km) ESE (rec'd 2013/11/21 04:00Z):

DIMN 210400Z NOL

Airport forecast for Roberts International Airport 130nm (240km) SW (rec'd 2014/07/27 00:51Z):

TAF GLRB 272200Z 2800/2906 21010KT 8000 BKN013 
     FM280100 07006KT 5000 RA/RADZ SCT003 BKN011 
      TEMPO 2808/2812 20008KT 9000 -RA BKN013 FEW023CB

Latest comments (top)

No comments yet for Nimba Airport

More... (top)

See also NOTAMs and nearby airports and navaids, or visit the Nimba Airport page at the main OurAirports website..